When you browse on this site, cookies collect data to enhance your experience and personalize the content and advertising you see.
Visit our Privacy Policy to learn more. By continuing to use the site, you agree to this use of cookies and data.
  • In Hungary
  • List of Countries
  • For 7 days
  • Water Temperature
  • Satellite Maps
  • Weather Map
  • News
  • Weather Widgets
  • user-avatar
    Login

    Hourly Weather Oegstgeest

    Today, 19 June, Wednesday

    Time Temperature Precipitation Wind Pressure Humidity
    00:00 +19°C° 0.4 mm 4 mps 757 mmHg 86%
    01:00 +18°C° 0.1 mm 4 mps 757 mmHg 87%
    02:00 +18°C° 0.1 mm 4 mps 756 mmHg 88%
    03:00 +18°C° 0.1 mm 4 mps 756 mmHg 89%
    04:00 +19°C° 0 mm 4 mps 755 mmHg 86%
    05:00 +19°C° 0 mm 4 mps 755 mmHg 83%
    06:00 +20°C° 0 mm 4 mps 754 mmHg 80%
    07:00 +21°C° 0.3 mm 3 mps 754 mmHg 76%
    08:00 +22°C° 0.3 mm 3 mps 754 mmHg 73%
    09:00 +24°C° 0.3 mm 2 mps 754 mmHg 69%
    10:00 +25°C° 0.2 mm 3 mps 754 mmHg 66%
    11:00 +26°C° 0.2 mm 3 mps 754 mmHg 63%
    12:00 +27°C° 0.2 mm 3 mps 754 mmHg 60%
    13:00 +26°C° 0.2 mm 4 mps 754 mmHg 60%
    14:00 +26°C° 0.2 mm 5 mps 754 mmHg 59%
    15:00 +26°C° 0.2 mm 5 mps 754 mmHg 59%
    16:00 +25°C° 0.6 mm 5 mps 754 mmHg 65%
    17:00 +22°C° 0.6 mm 5 mps 754 mmHg 72%
    18:00 +21°C° 0.6 mm 5 mps 754 mmHg 78%
    19:00 +20°C° 0 mm 5 mps 754 mmHg 80%
    20:00 +19°C° 0 mm 5 mps 755 mmHg 82%
    21:00 +17°C° 0 mm 5 mps 755 mmHg 85%
    22:00 +18°C° 0 mm 4 mps 755 mmHg 85%
    23:00 +18°C° 0 mm 4 mps 755 mmHg 86%

    Tomorrow, 20 June, Thursday

    Time Temperature Precipitation Wind Pressure Humidity
    00:00 +17°C° 0 mm 3 mps 756 mmHg 87%
    01:00 +17°C° 0 mm 3 mps 756 mmHg 88%
    02:00 +16°C° 0 mm 3 mps 756 mmHg 89%
    03:00 +16°C° 0 mm 2 mps 756 mmHg 90%
    04:00 +17°C° 0.3 mm 3 mps 756 mmHg 89%
    05:00 +17°C° 0.3 mm 3 mps 756 mmHg 87%
    06:00 +17°C° 0.3 mm 4 mps 757 mmHg 85%
    07:00 +18°C° 0.2 mm 4 mps 757 mmHg 80%
    08:00 +19°C° 0.2 mm 5 mps 757 mmHg 76%
    09:00 +19°C° 0.2 mm 6 mps 758 mmHg 71%
    10:00 +19°C° 0.1 mm 6 mps 758 mmHg 68%
    11:00 +20°C° 0.1 mm 5 mps 758 mmHg 65%
    12:00 +20°C° 0.1 mm 5 mps 758 mmHg 62%
    13:00 +20°C° 0 mm 5 mps 759 mmHg 60%
    14:00 +20°C° 0 mm 5 mps 759 mmHg 59%
    15:00 +19°C° 0 mm 5 mps 759 mmHg 57%
    16:00 +19°C° 0 mm 5 mps 759 mmHg 59%
    17:00 +18°C° 0 mm 4 mps 760 mmHg 61%
    18:00 +18°C° 0 mm 4 mps 760 mmHg 63%
    19:00 +17°C° 0 mm 4 mps 760 mmHg 67%
    20:00 +15°C° 0 mm 4 mps 760 mmHg 71%
    21:00 +14°C° 0 mm 3 mps 761 mmHg 75%
    22:00 +14°C° 0 mm 3 mps 761 mmHg 77%
    23:00 +14°C° 0 mm 3 mps 761 mmHg 79%

    Day after tomorrow, 21 June, Friday

    Time Temperature Precipitation Wind Pressure Humidity
    00:00 +14°C° 0 mm 3 mps 761 mmHg 82%
    01:00 +14°C° 0.1 mm 3 mps 761 mmHg 82%
    02:00 +14°C° 0.1 mm 3 mps 761 mmHg 83%
    03:00 +13°C° 0.1 mm 3 mps 761 mmHg 83%
    04:00 +14°C° 0 mm 3 mps 762 mmHg 79%
    05:00 +15°C° 0 mm 4 mps 762 mmHg 74%
    06:00 +17°C° 0 mm 4 mps 762 mmHg 70%
    07:00 +17°C° 0 mm 4 mps 762 mmHg 66%
    08:00 +18°C° 0 mm 4 mps 763 mmHg 61%
    09:00 +19°C° 0 mm 4 mps 763 mmHg 57%
    10:00 +19°C° 0 mm 4 mps 763 mmHg 55%
    11:00 +19°C° 0 mm 5 mps 763 mmHg 53%
    12:00 +19°C° 0 mm 5 mps 763 mmHg 51%
    13:00 +19°C° 0 mm 5 mps 763 mmHg 51%
    14:00 +19°C° 0 mm 4 mps 763 mmHg 51%
    15:00 +19°C° 0 mm 4 mps 764 mmHg 51%
    16:00 +18°C° 0 mm 4 mps 764 mmHg 52%
    17:00 +17°C° 0 mm 3 mps 764 mmHg 53%
    18:00 +17°C° 0 mm 3 mps 764 mmHg 55%
    19:00 +16°C° 0 mm 2 mps 765 mmHg 58%
    20:00 +15°C° 0 mm 2 mps 765 mmHg 61%
    21:00 +14°C° 0 mm 2 mps 765 mmHg 64%
    22:00 +13°C° 0 mm 1 mps 765 mmHg 67%
    23:00 +13°C° 0 mm 1 mps 765 mmHg 70%

    22 June, Saturday

    Time Temperature Precipitation Wind Pressure Humidity
    00:00 +13°C° 0 mm 1 mps 766 mmHg 72%
    01:00 +12°C° 0 mm 0 mps 766 mmHg 78%
    02:00 +11°C° 0 mm 0 mps 766 mmHg 79%
    03:00 +12°C° 0 mm 1 mps 766 mmHg 79%
    04:00 +13°C° 0 mm 1 mps 766 mmHg 76%
    05:00 +14°C° 0 mm 1 mps 766 mmHg 73%
    06:00 +14°C° 0 mm 2 mps 766 mmHg 70%
    07:00 +16°C° 0 mm 1 mps 766 mmHg 62%
    08:00 +18°C° 0 mm 1 mps 766 mmHg 55%
    09:00 +19°C° 0 mm 1 mps 766 mmHg 48%
    10:00 +20°C° 0 mm 1 mps 766 mmHg 45%
    11:00 +20°C° 0 mm 2 mps 766 mmHg 43%
    12:00 +21°C° 0 mm 3 mps 766 mmHg 40%
    13:00 +21°C° 0 mm 3 mps 766 mmHg 41%
    14:00 +21°C° 0 mm 4 mps 766 mmHg 43%
    15:00 +21°C° 0 mm 4 mps 765 mmHg 44%
    16:00 +20°C° 0 mm 5 mps 765 mmHg 48%
    17:00 +19°C° 0 mm 5 mps 765 mmHg 52%
    18:00 +19°C° 0 mm 5 mps 765 mmHg 57%
    19:00 +17°C° 0 mm 5 mps 766 mmHg 62%
    20:00 +16°C° 0 mm 5 mps 766 mmHg 67%
    21:00 +15°C° 0 mm 4 mps 766 mmHg 72%
    22:00 +14°C° 0 mm 4 mps 766 mmHg 76%
    23:00 +14°C° 0 mm 4 mps 766 mmHg 79%

    23 June, Sunday

    Time Temperature Precipitation Wind Pressure Humidity
    00:00 +13°C° 0 mm 4 mps 766 mmHg 83%
    01:00 +13°C° 0 mm 4 mps 766 mmHg 81%
    02:00 +12°C° 0 mm 4 mps 766 mmHg 80%
    03:00 +12°C° 0 mm 3 mps 766 mmHg 79%
    04:00 +12°C° 0 mm 4 mps 766 mmHg 76%
    05:00 +13°C° 0 mm 4 mps 766 mmHg 73%
    06:00 +14°C° 0 mm 4 mps 766 mmHg 70%
    07:00 +15°C° 0 mm 4 mps 766 mmHg 66%
    08:00 +18°C° 0 mm 3 mps 766 mmHg 63%
    09:00 +19°C° 0 mm 3 mps 767 mmHg 60%
    10:00 +20°C° 0 mm 3 mps 766 mmHg 58%
    11:00 +21°C° 0 mm 4 mps 766 mmHg 57%
    12:00 +22°C° 0 mm 4 mps 766 mmHg 56%
    13:00 +22°C° 0 mm 4 mps 766 mmHg 55%
    14:00 +23°C° 0 mm 4 mps 766 mmHg 54%
    15:00 +23°C° 0 mm 4 mps 765 mmHg 53%
    16:00 +23°C° 0 mm 5 mps 765 mmHg 55%
    17:00 +22°C° 0 mm 5 mps 765 mmHg 58%
    18:00 +21°C° 0 mm 5 mps 765 mmHg 61%
    19:00 +20°C° 0 mm 5 mps 765 mmHg 63%
    20:00 +19°C° 0 mm 5 mps 766 mmHg 64%
    21:00 +17°C° 0 mm 5 mps 766 mmHg 66%
    22:00 +16°C° 0 mm 5 mps 766 mmHg 68%
    23:00 +16°C° 0 mm 5 mps 766 mmHg 70%

    24 June, Monday

    Time Temperature Precipitation Wind Pressure Humidity
    00:00 +15°C° 0 mm 6 mps 766 mmHg 73%
    01:00 +15°C° 0 mm 5 mps 765 mmHg 75%
    02:00 +15°C° 0 mm 5 mps 765 mmHg 77%
    03:00 +14°C° 0 mm 5 mps 765 mmHg 80%
    04:00 +15°C° 0 mm 5 mps 765 mmHg 80%
    05:00 +15°C° 0 mm 5 mps 765 mmHg 80%
    06:00 +16°C° 0 mm 6 mps 765 mmHg 79%
    07:00 +17°C° 0 mm 6 mps 765 mmHg 77%
    08:00 +19°C° 0 mm 6 mps 765 mmHg 75%
    09:00 +20°C° 0 mm 6 mps 765 mmHg 72%
    10:00 +21°C° 0 mm 6 mps 765 mmHg 68%
    11:00 +23°C° 0 mm 5 mps 765 mmHg 64%
    12:00 +26°C° 0 mm 5 mps 764 mmHg 60%
    13:00 +26°C° 0 mm 6 mps 764 mmHg 59%
    14:00 +27°C° 0 mm 6 mps 764 mmHg 58%
    15:00 +28°C° 0 mm 6 mps 764 mmHg 57%
    16:00 +27°C° 0 mm 6 mps 764 mmHg 59%
    17:00 +27°C° 0 mm 6 mps 764 mmHg 62%
    18:00 +26°C° 0 mm 6 mps 764 mmHg 64%
    19:00 +24°C° 0 mm 6 mps 764 mmHg 66%
    20:00 +23°C° 0 mm 5 mps 764 mmHg 68%
    21:00 +22°C° 0 mm 5 mps 764 mmHg 70%
    22:00 +22°C° 0 mm 5 mps 764 mmHg 71%
    23:00 +22°C° 0 mm 5 mps 764 mmHg 72%
    Show more